Regional Weather Roundup
Issued by NWS

Home | Current Version | Previous Version | Text Only | Print | Product List | Glossary Off
Versions: 1 2 3 4 5 6 7 8 9 10 11 12 13 14 15 16 17 18 19 20 21 22 23 24 25 26 27 28 29 30 31 32 33 34 35 36 37 38 39 40 41 42 43 44 45 46 47 48 49 50

000
ASUS43 KFSD 280610
RWRSD

WEATHER ROUNDUP FOR SOUTH DAKOTA
NATIONAL WEATHER SERVICE SIOUX FALLS SD
100 AM CDT SAT MAY 28 2016

NOTE: "FAIR" INDICATES FEW OR NO CLOUDS BELOW 12,000 FEET WITH NO
SIGNIFICANT WEATHER AND/OR OBSTRUCTIONS TO VISIBILITY.


SDZ001>005-009-010-012>017-280700-
NORTHWEST AND NORTH CENTRAL SOUTH DAKOTA

CITY           SKY/WX    TMP DP  RH WIND       PRES   REMARKS
BUFFALO          N/A     50  44  80 SE7       29.81R
FAITH            N/A     55  46  71 CALM      29.84F
MOBRIDGE       MOCLDY    58  53  84 N3        29.80R
$$

SDZ012>016-024>037-041>051-057-063-072>074-280700-
SOUTHWEST AND SOUTH CENTRAL SOUTH DAKOTA

CITY           SKY/WX    TMP DP  RH WIND       PRES   REMARKS
RAPID CTY ARPT CLEAR     46  43  89 NW3       29.86S
PIERRE         CLOUDY    59  53  80 N3        29.80R
CUSTER         CLEAR     41  39  93 NW3       29.93F
ELLSWORTH AFB  CLEAR     53  47  80 W3        29.86S
PHILIP         MOCLDY    51  50  96 W7        29.83F
PINE RIDGE     CLOUDY    46  43  89 E6        29.88S
WINNER         FAIR      57  53  86 NW6       29.80F
$$

SDZ004>011-016>023-039-040-280700-
NORTHEAST SOUTH DAKOTA

CITY           SKY/WX    TMP DP  RH WIND       PRES   REMARKS
ABERDEEN       LGT RAIN  60  58  92 N6        29.80R
WATERTOWN      CLEAR     54  52  93 N7        29.78F
BROOKINGS      MOCLDY    60  56  86 NE5       29.76F
SISSETON         N/A     61  57  87 CALM      29.78S
$$

SDZ017-020-022-023-036>040-048>070-280700-
SOUTHEAST SOUTH DAKOTA

CITY           SKY/WX    TMP DP  RH WIND       PRES   REMARKS
SIOUX FALLS    CLOUDY    63  57  81 N7        29.74S
HURON          CLOUDY    60  58  92 N3        29.77S
CHAMBERLAIN    CLOUDY    60  58  94 NW5       29.78F
MITCHELL       MOCLDY    62  60  93 N8        29.76S
YANKTON        CLOUDY    63  57  82 S10G16    29.75R
$$

ABBREVIATIONS USED IN REMARKS
   TC - TEMPERATURE IN CELSIUS
  WCI - WIND CHILL INDEX
   HX - HEAT INDEX
  VSB - VISIBILITY





USA.gov is the U.S. government's official web portal to all federal, state and local government web resources and services.